| time (UTC) | temp F | wind direction | speed MPH | gust MPH | rain 1hr in | rain 24hr in | rain mn in | humidity % | barometer mb |
| 20260902174101 | 66 | 359 | 3.0 | 7.0 | 0.00 | 0.00 | 0.00 | 39 | 1032.8 |
| 20260902173555 | 67 | 57 | 6.0 | 9.0 | 0.00 | 0.00 | 0.00 | 37 | 1032.7 |
| 20260902173051 | 67 | 124 | 1.0 | 7.0 | 0.00 | 0.00 | 0.00 | 37 | 1032.5 |
| 20260902172544 | 68 | 271 | 0.0 | 7.0 | 0.00 | 0.00 | 0.00 | 38 | 1032.8 |
| 20260902172039 | 67 | 358 | 5.0 | 7.0 | 0.00 | 0.00 | 0.00 | 37 | 1032.7 |
| 20260902171535 | 66 | 158 | 3.0 | 8.0 | 0.00 | 0.00 | 0.00 | 38 | 1032.8 |
| 20260902171031 | 66 | 144 | 7.0 | 13.0 | 0.00 | 0.00 | 0.00 | 40 | 1032.9 |
| 20260902170526 | 66 | 49 | 2.0 | 11.0 | 0.00 | 0.00 | 0.00 | 40 | 1032.7 |
| 20260902170022 | 65 | 156 | 5.0 | 9.0 | 0.00 | 0.00 | 0.00 | 40 | 1032.7 |
| 20260902165516 | 66 | 83 | 6.0 | 9.0 | 0.00 | 0.00 | 0.00 | 39 | 1032.8 |
| 20260902165015 | 68 | 231 | 1.0 | 3.0 | 0.00 | 0.00 | 0.00 | 39 | 1032.7 |
| 20260902164511 | 66 | 21 | 4.0 | 4.0 | 0.00 | 0.00 | 0.00 | 38 | 1032.9 |
| 20260902164009 | 65 | 74 | 4.0 | 7.0 | 0.00 | 0.00 | 0.00 | 37 | 1032.7 |
| 20260902163506 | 66 | 26 | 8.0 | 10.0 | 0.00 | 0.00 | 0.00 | 38 | 1032.8 |
| 20260902163003 | 65 | 70 | 4.0 | 11.0 | 0.00 | 0.00 | 0.00 | 41 | 1032.8 |
| 20260902162458 | 67 | 253 | 1.0 | 2.0 | 0.00 | 0.00 | 0.00 | 39 | 1032.9 |
| 20260902161958 | 66 | 220 | 0.0 | 4.0 | 0.00 | 0.00 | 0.00 | 40 | 1032.9 |
| 20260902161448 | 66 | 182 | 4.0 | 6.0 | 0.00 | 0.00 | 0.00 | 40 | 1032.8 |
| 20260902160944 | 64 | 127 | 3.0 | 7.0 | 0.00 | 0.00 | 0.00 | 43 | 1032.8 |
| 20260902160439 | 63 | 231 | 2.0 | 6.0 | 0.00 | 0.00 | 0.00 | 45 | 1032.9 |
| 20260902155936 | 63 | 358 | 3.0 | 8.0 | 0.00 | 0.00 | 0.00 | 45 | 1032.8 |
| 20260902155433 | 64 | 194 | 0.0 | 4.0 | 0.00 | 0.00 | 0.00 | 44 | 1032.8 |
| 20260902154926 | 64 | 52 | 1.0 | 6.0 | 0.00 | 0.00 | 0.00 | 44 | 1032.9 |
| 20260902154422 | 64 | 333 | 3.0 | 9.0 | 0.00 | 0.00 | 0.00 | 45 | 1032.7 |
| 20260902153922 | 64 | 124 | 6.0 | 9.0 | 0.00 | 0.00 | 0.00 | 42 | 1032.8 |
| 20260902153420 | 64 | 248 | 2.0 | 4.0 | 0.00 | 0.00 | 0.00 | 44 | 1032.5 |
| 20260902152916 | 63 | 54 | 3.0 | 7.0 | 0.00 | 0.00 | 0.00 | 44 | 1032.7 |
| 20260902152412 | 63 | 300 | 1.0 | 4.0 | 0.00 | 0.00 | 0.00 | 45 | 1032.3 |
| 20260902151907 | 63 | 223 | 1.0 | 4.0 | 0.00 | 0.00 | 0.00 | 44 | 1032.5 |
| 20260902151402 | 63 | 59 | 3.0 | 3.0 | 0.00 | 0.00 | 0.00 | 43 | 1032.4 |
| 20260902150857 | 64 | 264 | 0.0 | 3.0 | 0.00 | 0.00 | 0.00 | 42 | 1032.4 |
| 20260902150353 | 63 | 225 | 2.0 | 4.0 | 0.00 | 0.00 | 0.00 | 43 | 1032.5 |
| 20260902145852 | 63 | 188 | 5.0 | 6.0 | 0.00 | 0.00 | 0.00 | 42 | 1032.3 |
| 20260902145348 | 62 | 127 | 3.0 | 6.0 | 0.00 | 0.00 | 0.00 | 42 | 1032.4 |
| 20260902144842 | 62 | 182 | 2.0 | 4.0 | 0.00 | 0.00 | 0.00 | 44 | 1032.3 |
| 20260902144338 | 62 | 189 | 4.0 | 6.0 | 0.00 | 0.00 | 0.00 | 42 | 1032.4 |
| 20260902143833 | 62 | 239 | 1.0 | 6.0 | 0.00 | 0.00 | 0.00 | 42 | 1032.5 |
| 20260902143327 | 61 | 204 | 3.0 | 3.0 | 0.00 | 0.00 | 0.00 | 41 | 1032.5 |
| 20260902142823 | 61 | 233 | 2.0 | 4.0 | 0.00 | 0.00 | 0.00 | 41 | 1032.7 |
| 20260902142320 | 61 | 235 | 3.0 | 6.0 | 0.00 | 0.00 | 0.00 | 42 | 1032.5 |
| 20260902141814 | 61 | 254 | 0.0 | 3.0 | 0.00 | 0.00 | 0.00 | 43 | 1032.5 |
| 20260902141310 | 60 | 200 | 1.0 | 4.0 | 0.00 | 0.00 | 0.00 | 44 | 1032.3 |
| 20260902140809 | 60 | 207 | 2.0 | 2.0 | 0.00 | 0.00 | 0.00 | 50 | 1032.1 |
| 20260902140305 | 60 | 254 | 2.0 | 7.0 | 0.00 | 0.00 | 0.00 | 44 | 1032.3 |
| 20260902135804 | 60 | 248 | 2.0 | 4.0 | 0.00 | 0.00 | 0.00 | 43 | 1032.1 |
| 20260902135300 | 59 | 240 | 0.0 | 0.0 | 0.00 | 0.00 | 0.00 | 53 | 1032.3 |
| 20260902134759 | 59 | 238 | 1.0 | 1.0 | 0.00 | 0.00 | 0.00 | 51 | 1032.3 |
| 20260902134255 | 58 | 258 | 1.0 | 8.0 | 0.00 | 0.00 | 0.00 | 47 | 1032.5 |
| 20260902133750 | 55 | 249 | 0.0 | 1.0 | 0.00 | 0.00 | 0.00 | 52 | 1032.3 |
| 20260902133249 | 55 | 240 | 1.0 | 1.0 | 0.00 | 0.00 | 0.00 | 53 | 1032.3 |
| 20260902132745 | 55 | 236 | 1.0 | 2.0 | 0.00 | 0.00 | 0.00 | 52 | 1032.1 |
| 20260902132240 | 56 | 234 | 1.0 | 2.0 | 0.00 | 0.00 | 0.00 | 50 | 1032.1 |
| 20260902131736 | 56 | 239 | 1.0 | 2.0 | 0.00 | 0.00 | 0.00 | 48 | 1032.4 |
| 20260902131232 | 56 | 206 | 4.0 | 4.0 | 0.00 | 0.00 | 0.00 | 45 | 1032.0 |
| 20260902130731 | 55 | 208 | 3.0 | 4.0 | 0.00 | 0.00 | 0.00 | 48 | 1032.3 |
| 20260902130227 | 54 | 252 | 1.0 | 4.0 | 0.00 | 0.00 | 0.00 | 46 | 1032.3 |
| 20260902125723 | 52 | 239 | 1.0 | 2.0 | 0.00 | 0.00 | 0.00 | 52 | 1032.3 |
| 20260902125219 | 52 | 234 | 1.0 | 2.0 | 0.00 | 0.00 | 0.00 | 51 | 1032.1 |
| 20260902124715 | 50 | 213 | 1.0 | 4.0 | 0.00 | 0.00 | 0.00 | 51 | 1032.0 |
| 20260902124209 | 49 | 205 | 3.0 | 4.0 | 0.00 | 0.00 | 0.00 | 51 | 1032.0 |
| 20260902123704 | 49 | 212 | 3.0 | 3.0 | 0.00 | 0.00 | 0.00 | 57 | 1031.6 |
| 20260902123201 | 50 | 197 | 3.0 | 3.0 | 0.00 | 0.00 | 0.00 | 53 | 1031.8 |
| 20260902122659 | 50 | 202 | 4.0 | 4.0 | 0.00 | 0.00 | 0.00 | 53 | 1031.9 |
| 20260902122156 | 50 | 203 | 4.0 | 4.0 | 0.00 | 0.00 | 0.00 | 53 | 1031.8 |
| 20260902121650 | 50 | 216 | 2.0 | 3.0 | 0.00 | 0.00 | 0.00 | 54 | 1031.6 |
| 20260902121144 | 50 | 212 | 3.0 | 3.0 | 0.00 | 0.00 | 0.00 | 50 | 1031.5 |
| 20260902120641 | 51 | 212 | 2.0 | 3.0 | 0.00 | 0.00 | 0.00 | 50 | 1031.8 |
| 20260902120137 | 51 | 228 | 2.0 | 3.0 | 0.00 | 0.00 | 0.00 | 51 | 1031.5 |
| 20260902115631 | 51 | 218 | 2.0 | 3.0 | 0.00 | 0.00 | 0.00 | 47 | 1031.9 |
| 20260902115127 | 53 | 225 | 3.0 | 3.0 | 0.00 | 0.00 | 0.00 | 43 | 1031.6 |
| 20260902114623 | 52 | 204 | 3.0 | 4.0 | 0.00 | 0.00 | 0.00 | 46 | 1031.9 |
| 20260902114123 | 50 | 189 | 4.0 | 6.0 | 0.00 | 0.00 | 0.00 | 48 | 1031.6 |
| 20260902113613 | 48 | 200 | 4.0 | 4.0 | 0.00 | 0.00 | 0.00 | 55 | 1031.6 |
| 20260902113108 | 49 | 205 | 3.0 | 3.0 | 0.00 | 0.00 | 0.00 | 57 | 1031.8 |
| 20260902112604 | 48 | 204 | 3.0 | 4.0 | 0.00 | 0.00 | 0.00 | 56 | 1031.6 |
| 20260902112100 | 48 | 201 | 3.0 | 3.0 | 0.00 | 0.00 | 0.00 | 61 | 1031.6 |
| 20260902111556 | 49 | 214 | 3.0 | 3.0 | 0.00 | 0.00 | 0.00 | 60 | 1031.6 |
| 20260902111051 | 50 | 209 | 3.0 | 3.0 | 0.00 | 0.00 | 0.00 | 60 | 1031.6 |
| 20260902110547 | 51 | 210 | 3.0 | 3.0 | 0.00 | 0.00 | 0.00 | 60 | 1031.6 |
| 20260902110043 | 49 | 209 | 3.0 | 4.0 | 0.00 | 0.00 | 0.00 | 61 | 1031.8 |
| 20260902105537 | 50 | 258 | 0.0 | 1.0 | 0.00 | 0.00 | 0.00 | 65 | 1031.8 |
| 20260902105032 | 50 | 207 | 3.0 | 3.0 | 0.00 | 0.00 | 0.00 | 64 | 1031.6 |
| 20260902104528 | 51 | 211 | 3.0 | 3.0 | 0.00 | 0.00 | 0.00 | 63 | 1031.8 |
| 20260902104027 | 51 | 234 | 2.0 | 3.0 | 0.00 | 0.00 | 0.00 | 60 | 1031.8 |
| 20260902103522 | 50 | 233 | 2.0 | 3.0 | 0.00 | 0.00 | 0.00 | 65 | 1031.6 |
| 20260902103018 | 51 | 214 | 2.0 | 4.0 | 0.00 | 0.00 | 0.00 | 66 | 1031.8 |
| 20260902102514 | 51 | 204 | 4.0 | 4.0 | 0.00 | 0.00 | 0.00 | 66 | 1031.8 |
| 20260902102011 | 50 | 206 | 3.0 | 4.0 | 0.00 | 0.00 | 0.00 | 69 | 1031.5 |
| 20260902101506 | 51 | 210 | 2.0 | 3.0 | 0.00 | 0.00 | 0.00 | 71 | 1031.6 |
| 20260902101004 | 50 | 218 | 2.0 | 3.0 | 0.00 | 0.00 | 0.00 | 72 | 1031.8 |
| 20260902100459 | 50 | 225 | 2.0 | 2.0 | 0.00 | 0.00 | 0.00 | 73 | 1031.8 |
| 20260902095954 | 50 | 220 | 2.0 | 2.0 | 0.00 | 0.00 | 0.00 | 74 | 1031.8 |
| 20260902095448 | 50 | 208 | 3.0 | 3.0 | 0.00 | 0.00 | 0.00 | 74 | 1031.9 |
| 20260902094948 | 50 | 207 | 3.0 | 3.0 | 0.00 | 0.00 | 0.00 | 74 | 1031.6 |
| 20260902094443 | 50 | 211 | 3.0 | 3.0 | 0.00 | 0.00 | 0.00 | 74 | 1031.8 |
| 20260902093938 | 50 | 204 | 3.0 | 3.0 | 0.00 | 0.00 | 0.00 | 73 | 1031.8 |
| 20260902093433 | 51 | 207 | 3.0 | 3.0 | 0.00 | 0.00 | 0.00 | 71 | 1031.9 |
| 20260902092932 | 51 | 211 | 3.0 | 3.0 | 0.00 | 0.00 | 0.00 | 71 | 1031.9 |
| 20260902092428 | 51 | 207 | 3.0 | 3.0 | 0.00 | 0.00 | 0.00 | 70 | 1031.9 |
| 20260902091928 | 52 | 204 | 3.0 | 3.0 | 0.00 | 0.00 | 0.00 | 69 | 1032.0 |
| 20260902091423 | 52 | 208 | 3.0 | 4.0 | 0.00 | 0.00 | 0.00 | 69 | 1031.9 |
| 20260902090919 | 53 | 208 | 4.0 | 4.0 | 0.00 | 0.00 | 0.00 | 68 | 1031.8 |
| 20260902090414 | 52 | 199 | 3.0 | 4.0 | 0.00 | 0.00 | 0.00 | 68 | 1031.9 |
| 20260902085913 | 52 | 208 | 3.0 | 3.0 | 0.00 | 0.00 | 0.00 | 69 | 1032.1 |
| 20260902085408 | 52 | 218 | 2.0 | 3.0 | 0.00 | 0.00 | 0.00 | 69 | 1032.0 |
| 20260902084903 | 51 | 201 | 2.0 | 3.0 | 0.00 | 0.00 | 0.00 | 69 | 1031.8 |
| 20260902084400 | 51 | 204 | 3.0 | 3.0 | 0.00 | 0.00 | 0.00 | 70 | 1032.1 |
| 20260902083855 | 51 | 203 | 3.0 | 3.0 | 0.00 | 0.00 | 0.00 | 70 | 1032.0 |
| 20260902083355 | 51 | 206 | 3.0 | 4.0 | 0.00 | 0.00 | 0.00 | 70 | 1032.0 |
| 20260902082850 | 51 | 208 | 3.0 | 3.0 | 0.00 | 0.00 | 0.00 | 71 | 1031.9 |
| 20260902082346 | 51 | 205 | 3.0 | 3.0 | 0.00 | 0.00 | 0.00 | 70 | 1032.0 |
| 20260902081843 | 51 | 202 | 3.0 | 4.0 | 0.00 | 0.00 | 0.00 | 68 | 1031.8 |
| 20260902081338 | 51 | 211 | 2.0 | 4.0 | 0.00 | 0.00 | 0.00 | 68 | 1031.9 |
| 20260902080833 | 51 | 204 | 3.0 | 3.0 | 0.00 | 0.00 | 0.00 | 69 | 1032.1 |
| 20260902080330 | 52 | 205 | 3.0 | 3.0 | 0.00 | 0.00 | 0.00 | 69 | 1032.1 |
| 20260902075828 | 52 | 214 | 3.0 | 3.0 | 0.00 | 0.00 | 0.00 | 68 | 1032.1 |
| 20260902075325 | 52 | 206 | 3.0 | 3.0 | 0.00 | 0.00 | 0.00 | 68 | 1032.5 |
| 20260902074820 | 52 | 201 | 4.0 | 4.0 | 0.00 | 0.00 | 0.00 | 67 | 1032.4 |
| 20260902074315 | 53 | 210 | 3.0 | 3.0 | 0.00 | 0.00 | 0.00 | 66 | 1032.3 |
| 20260902073810 | 53 | 202 | 3.0 | 4.0 | 0.00 | 0.00 | 0.00 | 66 | 1032.0 |
| 20260902073306 | 53 | 200 | 3.0 | 3.0 | 0.00 | 0.00 | 0.00 | 66 | 1032.1 |
| 20260902072803 | 53 | 212 | 3.0 | 3.0 | 0.00 | 0.00 | 0.00 | 66 | 1032.0 |
| 20260902072257 | 52 | 207 | 3.0 | 3.0 | 0.00 | 0.00 | 0.00 | 66 | 1032.0 |
| 20260902071754 | 53 | 209 | 3.0 | 3.0 | 0.00 | 0.00 | 0.00 | 66 | 1032.3 |
| 20260902071249 | 53 | 208 | 3.0 | 3.0 | 0.00 | 0.00 | 0.00 | 66 | 1032.0 |
| 20260902070745 | 52 | 206 | 3.0 | 4.0 | 0.00 | 0.00 | 0.00 | 65 | 1032.3 |
| 20260902070245 | 52 | 202 | 4.0 | 4.0 | 0.00 | 0.00 | 0.00 | 66 | 1032.1 |
| 20260902065743 | 52 | 201 | 3.0 | 4.0 | 0.00 | 0.00 | 0.00 | 66 | 1032.0 |
| 20260902065239 | 52 | 208 | 3.0 | 3.0 | 0.00 | 0.00 | 0.00 | 68 | 1032.0 |
| 20260902064734 | 52 | 208 | 3.0 | 3.0 | 0.00 | 0.00 | 0.00 | 68 | 1032.1 |
| 20260902064230 | 52 | 208 | 3.0 | 3.0 | 0.00 | 0.00 | 0.00 | 67 | 1032.3 |
| 20260902063726 | 51 | 213 | 3.0 | 3.0 | 0.00 | 0.00 | 0.00 | 67 | 1032.0 |
| 20260902063226 | 52 | 209 | 3.0 | 3.0 | 0.00 | 0.00 | 0.00 | 68 | 1032.3 |
| 20260902062720 | 52 | 204 | 3.0 | 3.0 | 0.00 | 0.00 | 0.00 | 68 | 1032.0 |
| 20260902062215 | 52 | 206 | 3.0 | 3.0 | 0.00 | 0.00 | 0.00 | 68 | 1032.4 |
| 20260902061714 | 52 | 205 | 3.0 | 3.0 | 0.00 | 0.00 | 0.00 | 68 | 1032.1 |
| 20260902061209 | 52 | 211 | 3.0 | 3.0 | 0.00 | 0.00 | 0.00 | 67 | 1032.1 |
| 20260902060706 | 52 | 208 | 3.0 | 3.0 | 0.00 | 0.00 | 0.00 | 67 | 1032.3 |
| 20260902060202 | 52 | 211 | 3.0 | 3.0 | 0.00 | 0.00 | 0.00 | 67 | 1032.1 |
| 20260902055657 | 52 | 212 | 3.0 | 3.0 | 0.00 | 0.05 | 0.05 | 67 | 1032.1 |
| 20260902055153 | 52 | 212 | 3.0 | 3.0 | 0.00 | 0.05 | 0.05 | 67 | 1032.3 |
| 20260902054648 | 52 | 212 | 3.0 | 3.0 | 0.00 | 0.05 | 0.05 | 68 | 1032.4 |
| 20260902054143 | 52 | 215 | 3.0 | 3.0 | 0.00 | 0.05 | 0.05 | 69 | 1032.4 |
| 20260902053633 | 52 | 207 | 3.0 | 3.0 | 0.00 | 0.05 | 0.05 | 67 | 1032.4 |
| 20260902053132 | 51 | 208 | 3.0 | 3.0 | 0.00 | 0.05 | 0.05 | 68 | 1032.3 |
| 20260902052627 | 51 | 208 | 3.0 | 3.0 | 0.00 | 0.05 | 0.05 | 70 | 1032.1 |
| 20260902052123 | 51 | 206 | 3.0 | 3.0 | 0.00 | 0.05 | 0.05 | 71 | 1032.1 |
| 20260902051622 | 52 | 209 | 3.0 | 3.0 | 0.00 | 0.05 | 0.05 | 69 | 1032.3 |
| 20260902051121 | 52 | 213 | 2.0 | 2.0 | 0.00 | 0.05 | 0.05 | 70 | 1032.3 |
| 20260902050616 | 52 | 209 | 3.0 | 3.0 | 0.00 | 0.05 | 0.05 | 69 | 1032.4 |
| 20260902050111 | 52 | 211 | 3.0 | 3.0 | 0.00 | 0.05 | 0.05 | 70 | 1032.1 |
| 20260902045607 | 53 | 208 | 3.0 | 3.0 | 0.00 | 0.05 | 0.05 | 69 | 1032.3 |
| 20260902045103 | 53 | 211 | 3.0 | 3.0 | 0.00 | 0.05 | 0.05 | 68 | 1032.4 |
| 20260902044602 | 53 | 222 | 2.0 | 3.0 | 0.00 | 0.05 | 0.05 | 69 | 1032.4 |
| 20260902044058 | 53 | 205 | 3.0 | 3.0 | 0.00 | 0.05 | 0.05 | 68 | 1032.4 |
| 20260902043548 | 53 | 216 | 2.0 | 3.0 | 0.00 | 0.05 | 0.05 | 68 | 1032.4 |
| 20260902043042 | 53 | 231 | 2.0 | 2.0 | 0.00 | 0.05 | 0.05 | 67 | 1032.7 |
| 20260902042536 | 54 | 224 | 2.0 | 2.0 | 0.00 | 0.05 | 0.05 | 66 | 1032.5 |
| 20260902042031 | 54 | 237 | 1.0 | 2.0 | 0.00 | 0.05 | 0.05 | 67 | 1032.7 |
| 20260902041525 | 54 | 234 | 2.0 | 2.0 | 0.00 | 0.05 | 0.05 | 67 | 1032.7 |
| 20260902041020 | 55 | 252 | 0.0 | 1.0 | 0.00 | 0.05 | 0.05 | 66 | 1032.7 |
| 20260902040514 | 53 | 255 | 0.0 | 1.0 | 0.00 | 0.05 | 0.05 | 66 | 1032.8 |
| 20260902040009 | 53 | 225 | 1.0 | 3.0 | 0.00 | 0.05 | 0.05 | 68 | 1032.3 |
| 20260902035503 | 53 | 215 | 3.0 | 3.0 | 0.00 | 0.05 | 0.05 | 69 | 1032.3 |
| 20260902035002 | 53 | 207 | 2.0 | 2.0 | 0.00 | 0.05 | 0.05 | 71 | 1032.5 |
| 20260902034457 | 53 | 208 | 3.0 | 3.0 | 0.00 | 0.05 | 0.05 | 71 | 1032.8 |
| 20260902033951 | 53 | 206 | 2.0 | 3.0 | 0.00 | 0.05 | 0.05 | 72 | 1032.5 |
| 20260902033450 | 53 | 215 | 2.0 | 3.0 | 0.00 | 0.05 | 0.05 | 70 | 1032.4 |
| 20260902032949 | 53 | 204 | 2.0 | 3.0 | 0.00 | 0.05 | 0.05 | 70 | 1032.5 |
| 20260902032444 | 53 | 212 | 2.0 | 3.0 | 0.00 | 0.05 | 0.05 | 69 | 1032.5 |
| 20260902031938 | 53 | 210 | 3.0 | 3.0 | 0.00 | 0.05 | 0.05 | 70 | 1032.8 |
| 20260902031428 | 53 | 212 | 3.0 | 3.0 | 0.00 | 0.05 | 0.05 | 68 | 1032.7 |
| 20260902030924 | 54 | 230 | 2.0 | 2.0 | 0.00 | 0.05 | 0.05 | 70 | 1032.4 |
| 20260902030419 | 54 | 228 | 2.0 | 2.0 | 0.00 | 0.05 | 0.05 | 69 | 1032.7 |
| 20260902025917 | 55 | 223 | 2.0 | 3.0 | 0.00 | 0.05 | 0.05 | 68 | 1032.3 |
| 20260902025413 | 55 | 216 | 2.0 | 3.0 | 0.00 | 0.05 | 0.05 | 66 | 1032.5 |
| 20260902024908 | 55 | 228 | 2.0 | 2.0 | 0.00 | 0.05 | 0.05 | 64 | 1032.4 |
| 20260902024403 | 55 | 218 | 2.0 | 2.0 | 0.00 | 0.05 | 0.05 | 66 | 1032.3 |
| 20260902023859 | 54 | 218 | 3.0 | 3.0 | 0.00 | 0.05 | 0.05 | 68 | 1032.1 |
| 20260902023354 | 54 | 207 | 3.0 | 3.0 | 0.00 | 0.05 | 0.05 | 67 | 1032.3 |
| 20260902022853 | 54 | 199 | 3.0 | 3.0 | 0.00 | 0.05 | 0.05 | 67 | 1032.1 |
| 20260902022348 | 54 | 210 | 3.0 | 3.0 | 0.00 | 0.05 | 0.05 | 68 | 1031.9 |
| 20260902021844 | 54 | 212 | 2.0 | 3.0 | 0.00 | 0.05 | 0.05 | 69 | 1031.8 |
| 20260902021339 | 54 | 213 | 2.0 | 3.0 | 0.00 | 0.05 | 0.05 | 68 | 1031.9 |
| 20260902020834 | 55 | 217 | 2.0 | 2.0 | 0.00 | 0.05 | 0.05 | 67 | 1031.8 |
| 20260902020331 | 55 | 221 | 2.0 | 2.0 | 0.00 | 0.05 | 0.05 | 67 | 1032.0 |
| 20260902015826 | 55 | 223 | 2.0 | 3.0 | 0.00 | 0.05 | 0.05 | 67 | 1031.6 |
| 20260902015322 | 55 | 212 | 2.0 | 3.0 | 0.00 | 0.05 | 0.05 | 66 | 1031.8 |
| 20260902014817 | 55 | 216 | 2.0 | 3.0 | 0.00 | 0.05 | 0.05 | 66 | 1031.6 |
| 20260902014314 | 55 | 213 | 2.0 | 3.0 | 0.00 | 0.05 | 0.05 | 67 | 1031.5 |
| 20260902013812 | 55 | 208 | 3.0 | 3.0 | 0.00 | 0.05 | 0.05 | 66 | 1031.8 |
| 20260902013308 | 56 | 211 | 3.0 | 3.0 | 0.00 | 0.05 | 0.05 | 68 | 1031.6 |
| 20260902012803 | 56 | 216 | 2.0 | 3.0 | 0.00 | 0.05 | 0.05 | 67 | 1031.6 |
| 20260902012259 | 56 | 220 | 2.0 | 2.0 | 0.00 | 0.05 | 0.05 | 70 | 1031.6 |
| 20260902011754 | 56 | 212 | 2.0 | 3.0 | 0.00 | 0.05 | 0.05 | 71 | 1031.8 |
| 20260902011254 | 57 | 220 | 2.0 | 2.0 | 0.00 | 0.05 | 0.05 | 67 | 1031.9 |
| 20260902010748 | 57 | 224 | 2.0 | 2.0 | 0.00 | 0.05 | 0.05 | 70 | 1032.0 |
| 20260902010244 | 56 | 219 | 2.0 | 2.0 | 0.00 | 0.05 | 0.05 | 71 | 1031.8 |
| 20260902005742 | 56 | 221 | 2.0 | 2.0 | 0.00 | 0.05 | 0.05 | 72 | 1032.0 |
| 20260902005238 | 56 | 224 | 2.0 | 3.0 | 0.00 | 0.05 | 0.05 | 79 | 1031.8 |
| 20260902004737 | 56 | 218 | 2.0 | 2.0 | 0.00 | 0.05 | 0.05 | 78 | 1031.8 |
| 20260902004232 | 55 | 211 | 3.0 | 3.0 | 0.00 | 0.05 | 0.05 | 78 | 1031.9 |
| 20260902003727 | 56 | 233 | 2.0 | 2.0 | 0.00 | 0.05 | 0.05 | 82 | 1031.9 |
| 20260902003223 | 56 | 237 | 1.0 | 2.0 | 0.00 | 0.05 | 0.05 | 85 | 1032.1 |
| 20260902002718 | 57 | 227 | 2.0 | 2.0 | 0.00 | 0.05 | 0.05 | 86 | 1031.6 |
| 20260902002218 | 59 | 228 | 2.0 | 2.0 | 0.00 | 0.05 | 0.05 | 78 | 1031.8 |
| 20260902001713 | 61 | 240 | 1.0 | 1.0 | 0.00 | 0.05 | 0.05 | 66 | 1031.8 |
| 20260902001208 | 63 | 248 | 1.0 | 1.0 | 0.00 | 0.05 | 0.05 | 56 | 1031.9 |
| 20260902000703 | 63 | 254 | 0.0 | 0.0 | 0.00 | 0.05 | 0.05 | 56 | 1032.0 |
| 20260902000158 | 64 | 271 | 0.0 | 0.0 | 0.00 | 0.05 | 0.05 | 50 | 1031.6 |
| 20260901235657 | 64 | 261 | 0.0 | 0.0 | 0.00 | 0.05 | 0.05 | 52 | 1031.9 |
| 20260901235153 | 64 | 250 | 0.0 | 2.0 | 0.00 | 0.05 | 0.05 | 49 | 1031.8 |
| 20260901234652 | 64 | 257 | 0.0 | 0.0 | 0.00 | 0.05 | 0.05 | 51 | 1031.8 |
| 20260901234147 | 64 | 285 | 1.0 | 1.0 | 0.00 | 0.05 | 0.05 | 50 | 1031.9 |
| 20260901233642 | 64 | 275 | 0.0 | 1.0 | 0.00 | 0.05 | 0.05 | 51 | 1031.9 |
| 20260901233138 | 64 | 248 | 0.0 | 0.0 | 0.00 | 0.05 | 0.05 | 51 | 1031.8 |
| 20260901232638 | 64 | 267 | 0.0 | 2.0 | 0.00 | 0.05 | 0.05 | 53 | 1031.8 |
| 20260901232133 | 64 | 253 | 0.0 | 1.0 | 0.00 | 0.05 | 0.05 | 51 | 1031.6 |
| 20260901231630 | 64 | 266 | 1.0 | 3.0 | 0.00 | 0.05 | 0.05 | 57 | 1031.8 |
| 20260901231126 | 64 | 307 | 3.0 | 3.0 | 0.00 | 0.05 | 0.05 | 49 | 1031.9 |
| 20260901230621 | 64 | 338 | 0.0 | 4.0 | 0.00 | 0.05 | 0.05 | 49 | 1031.8 |
| 20260901230121 | 64 | 67 | 2.0 | 8.0 | 0.00 | 0.05 | 0.05 | 49 | 1031.8 |
| 20260901225616 | 65 | 25 | 3.0 | 6.0 | 0.00 | 0.05 | 0.05 | 48 | 1031.5 |
| 20260901225116 | 66 | 242 | 0.0 | 3.0 | 0.00 | 0.05 | 0.05 | 46 | 1031.5 |
| 20260901224612 | 67 | 263 | 0.0 | 4.0 | 0.00 | 0.05 | 0.05 | 41 | 1031.8 |
| 20260901224108 | 67 | 256 | 1.0 | 2.0 | 0.00 | 0.05 | 0.05 | 42 | 1031.8 |
| 20260901223603 | 66 | 324 | 1.0 | 3.0 | 0.00 | 0.05 | 0.05 | 42 | 1031.8 |
| 20260901223058 | 64 | 331 | 1.0 | 3.0 | 0.00 | 0.05 | 0.05 | 46 | 1031.6 |
| 20260901222554 | 64 | 276 | 1.0 | 3.0 | 0.00 | 0.05 | 0.05 | 46 | 1031.5 |
| 20260901222050 | 64 | 49 | 2.0 | 4.0 | 0.00 | 0.05 | 0.05 | 47 | 1031.6 |
| 20260901221546 | 64 | 267 | 1.0 | 3.0 | 0.00 | 0.05 | 0.05 | 45 | 1031.9 |
| 20260901221041 | 64 | 272 | 0.0 | 3.0 | 0.00 | 0.05 | 0.05 | 46 | 1031.6 |
| 20260901220541 | 64 | 332 | 0.0 | 3.0 | 0.00 | 0.05 | 0.05 | 46 | 1032.1 |
| 20260901220040 | 64 | 351 | 2.0 | 8.0 | 0.00 | 0.05 | 0.05 | 46 | 1031.8 |
| 20260901215538 | 64 | 10 | 4.0 | 7.0 | 0.00 | 0.05 | 0.05 | 44 | 1031.9 |
| 20260901215032 | 65 | 302 | 5.0 | 8.0 | 0.00 | 0.05 | 0.05 | 44 | 1032.0 |
| 20260901214531 | 65 | 283 | 4.0 | 8.0 | 0.00 | 0.05 | 0.05 | 44 | 1032.3 |
| 20260901214026 | 64 | 348 | 4.0 | 4.0 | 0.00 | 0.05 | 0.05 | 45 | 1032.0 |
| 20260901213525 | 65 | 10 | 2.0 | 3.0 | 0.00 | 0.05 | 0.05 | 44 | 1032.1 |
| 20260901213020 | 65 | 307 | 3.0 | 7.0 | 0.00 | 0.05 | 0.05 | 44 | 1032.0 |
| 20260901212520 | 65 | 318 | 2.0 | 6.0 | 0.00 | 0.05 | 0.05 | 46 | 1032.3 |
| 20260901212017 | 66 | 260 | 1.0 | 1.0 | 0.00 | 0.05 | 0.05 | 43 | 1032.3 |
| 20260901211511 | 66 | 340 | 9.0 | 14.0 | 0.00 | 0.05 | 0.05 | 43 | 1032.3 |
| 20260901211008 | 66 | 317 | 9.0 | 13.0 | 0.00 | 0.05 | 0.05 | 44 | 1032.0 |
| 20260901210503 | 66 | 3 | 9.0 | 13.0 | 0.00 | 0.05 | 0.05 | 44 | 1032.1 |
| 20260901205959 | 67 | 294 | 9.0 | 13.0 | 0.00 | 0.05 | 0.05 | 43 | 1032.0 |
| 20260901205454 | 65 | 327 | 7.0 | 13.0 | 0.00 | 0.05 | 0.05 | 44 | 1032.4 |
| 20260901204948 | 64 | 303 | 5.0 | 9.0 | 0.00 | 0.05 | 0.05 | 49 | 1032.3 |
| 20260901204446 | 65 | 346 | 5.0 | 6.0 | 0.00 | 0.05 | 0.05 | 47 | 1032.3 |
| 20260901203944 | 66 | 330 | 3.0 | 6.0 | 0.00 | 0.05 | 0.05 | 50 | 1032.3 |
| 20260901203434 | 67 | 299 | 1.0 | 2.0 | 0.00 | 0.05 | 0.05 | 44 | 1032.1 |
| 20260901202929 | 67 | 275 | 3.0 | 6.0 | 0.00 | 0.05 | 0.05 | 38 | 1032.5 |
| 20260901202424 | 69 | 337 | 3.0 | 7.0 | 0.00 | 0.05 | 0.05 | 38 | 1032.3 |
| 20260901201920 | 71 | 340 | 2.0 | 7.0 | 0.00 | 0.05 | 0.05 | 33 | 1032.4 |
| 20260901201414 | 70 | 333 | 1.0 | 6.0 | 0.00 | 0.05 | 0.05 | 34 | 1032.5 |
| 20260901200908 | 69 | 260 | 4.0 | 6.0 | 0.00 | 0.05 | 0.05 | 34 | 1032.5 |
| 20260901200403 | 69 | 148 | 10.0 | 13.0 | 0.00 | 0.05 | 0.05 | 34 | 1032.0 |
| 20260901195902 | 68 | 49 | 4.0 | 7.0 | 0.00 | 0.05 | 0.05 | 37 | 1032.1 |
| 20260901195355 | 69 | 330 | 3.0 | 7.0 | 0.00 | 0.05 | 0.05 | 37 | 1032.5 |
| 20260901194850 | 69 | 241 | 4.0 | 8.0 | 0.00 | 0.05 | 0.05 | 35 | 1032.3 |
| 20260901194344 | 69 | 228 | 2.0 | 7.0 | 0.00 | 0.05 | 0.05 | 37 | 1032.4 |
| 20260901193842 | 68 | 112 | 4.0 | 14.0 | 0.00 | 0.05 | 0.05 | 37 | 1032.4 |
| 20260901193340 | 70 | 224 | 5.0 | 9.0 | 0.00 | 0.05 | 0.05 | 35 | 1032.7 |
| 20260901192835 | 68 | 351 | 3.0 | 8.0 | 0.00 | 0.05 | 0.05 | 38 | 1032.5 |
| 20260901192330 | 67 | 323 | 3.0 | 6.0 | 0.00 | 0.05 | 0.05 | 41 | 1032.1 |
| 20260901191826 | 67 | 330 | 9.0 | 10.0 | 0.00 | 0.05 | 0.05 | 37 | 1032.4 |
| 20260901191321 | 68 | 16 | 4.0 | 8.0 | 0.00 | 0.05 | 0.05 | 39 | 1032.3 |
| 20260901190817 | 68 | 287 | 2.0 | 11.0 | 0.00 | 0.05 | 0.05 | 38 | 1032.4 |
| 20260901190311 | 67 | 311 | 5.0 | 8.0 | 0.00 | 0.05 | 0.05 | 42 | 1032.7 |
| 20260901185810 | 68 | 320 | 9.0 | 14.0 | 0.00 | 0.05 | 0.05 | 41 | 1032.8 |
| 20260901185309 | 69 | 246 | 3.0 | 10.0 | 0.00 | 0.05 | 0.05 | 38 | 1032.8 |
| 20260901184805 | 67 | 301 | 7.0 | 10.0 | 0.00 | 0.05 | 0.05 | 39 | 1032.5 |
| 20260901184300 | 71 | 302 | 4.0 | 6.0 | 0.00 | 0.05 | 0.05 | 38 | 1032.7 |
| 20260901183755 | 68 | 259 | 0.0 | 6.0 | 0.00 | 0.05 | 0.05 | 36 | 1032.8 |
| 20260901183255 | 68 | 233 | 4.0 | 6.0 | 0.00 | 0.05 | 0.05 | 36 | 1032.8 |
| 20260901182751 | 68 | 338 | 8.0 | 11.0 | 0.00 | 0.05 | 0.05 | 40 | 1033.1 |
| 20260901182250 | 67 | 257 | 5.0 | 7.0 | 0.00 | 0.05 | 0.05 | 40 | 1032.8 |
| 20260901181745 | 67 | 234 | 9.0 | 10.0 | 0.00 | 0.05 | 0.05 | 38 | 1032.5 |
| 20260901181240 | 66 | 260 | 2.0 | 3.0 | 0.00 | 0.05 | 0.05 | 39 | 1033.1 |
| 20260901180739 | 67 | 281 | 0.0 | 7.0 | 0.00 | 0.05 | 0.05 | 38 | 1032.9 |
| 20260901180238 | 66 | 266 | 0.0 | 3.0 | 0.00 | 0.05 | 0.05 | 39 | 1032.9 |
| 20260901175737 | 67 | 183 | 2.0 | 9.0 | 0.00 | 0.05 | 0.05 | 41 | 1032.9 |
| 20260901175233 | 64 | 321 | 2.0 | 4.0 | 0.00 | 0.05 | 0.05 | 42 | 1033.1 |
| 20260901174727 | 66 | 244 | 3.0 | 4.0 | 0.00 | 0.05 | 0.05 | 42 | 1033.2 |